Location: Newark
(27.9675°N, 86.8869°E)
Time: 11:21:43
(UTC+00:00)

SR - Pass Details

Date: 27 October 2019
Orbit: 573 x 882 km, 66.7° (Epoch: 20 November)

Event Time Altitude Azimuth Distance (km) Brightness Sun altitude
Rises 22:58:09 0° 349° (N) 3,478 ? -18.7°
Reaches altitude 10° 23:01:03 10° 1° (N) 2,541 ? -18.1°
Maximum altitude 23:06:02 27° 58° (ENE) 1,603 ? -17.0°
Drops below altitude 10° 23:10:52 10° 116° (ESE) 2,473 ? -15.9°
Sets 23:13:38 0° 128° (SE) 3,369 ? -15.3°
